Weather in Myropillia

Ukraine / Sumi District     51°01′25″N   35°15′31″E
temp.,
°C
wind,
m/s
gust,
m/s
humid.,
%
clouds,
%
prec.,
mm/h
press.,
hPa
HPBL,
m
13 june, sun
sun1300:00+14wsw22920 0.0 100923
03:00+13sw33944 0.0 100943
06:00+14ssw249468 0.0 1009117
09:00+19ssw46815 0.1 1008450
12:00+21ssw57757 2.7 10081144
15:00+22ssw57676 3.8 10081383
18:00+21ssw48784 1.2 1008502
21:00+16s34895 1.7 100963
14 june, mon
mon1400:00+15s22914 0.0 101025
03:00+14sse229333 0.0 101020
06:00+15ese359415 0.0 1011126
09:00+20sse34805 0.0 1013490
12:00+23sse346882 4.7 1013927
15:00+24sse34621 6.1 10141525
18:00+24sw126512 0.8 10131334
21:00+18nnw118163 1.4 101511
15 june, tue
tue1500:00+16ene118764 0.0 101511
03:00+16ne118876 0.0 101411
06:00+16ne229099 0.0 101544
09:00+20nne238148 0.0 1014386
12:00+23n34705 0.8 10131098
15:00+24nne336610 1.7 10121282
18:00+23n34804 1.8 1011703
21:00+18n34905 3.1 101147
16 june, wed
wed1600:00+16nnw379577 0.0 1011141
03:00+16nnw499793 0.0 1010210
06:00+16n4109683 0.0 1010288
09:00+19n5786100 0.0 1011461
12:00+22n787440 0.1 10111082
15:00+22n698050 1.3 10111204
18:00+21n61184100 1.4 1012814
21:00+18n5138918 1.4 1013380
17 june, thu
thu1700:00+17nne615915 0.0 1014452
03:00+16nne615890 0.0 1014474
06:00+16nne614902 0.1 1016548
09:00+19ne8148117 0.4 1017788
12:00+20ne8117892 0.4 10171067
15:00+19ene61181100 0.6 1019859
18:00+20ne61179100 0.1 1019751
21:00+19ne61273100 0.1 1021699